This demonstration page uses our WeatherBlox Daily Observations layout. Learn more.

Left ArrowRight Arrow

Hourly Observations for April 13, 2022

Temp ( °F °C ) Dew Point ( °F °C ) Humidity (%) Winds ( mph kmh ) Pressure ( in mb ) Visibility ( mi km ) Precip ( " mm )
12:53 am 00:53 Cloudy 40 4.4 21 -6.1 47 47 NNW 23 37 29.69 1005 10 16 0.00 0.00
1:53 am 01:53 Mostly Cloudy 36 2.2 15 -9.4 42 42 NNW 28 44 29.74 1007 10 16 0.00 0.00
2:53 am 02:53 Cloudy 35 1.7 14 -10 42 42 NW 23 37 29.78 1009 10 16 0.00 0.00
3:53 am 03:53 Cloudy 32 0 13 -10.6 45 45 NNW 21 33 29.79 1009 10 16 0.00 0.00
4:53 am 04:53 Mostly Cloudy 31 -0.6 10 -12.2 42 42 NW 26 43 29.78 1009 10 16 0.00 0.00
5:53 am 05:53 Mostly Clear 27 -2.8 8 -13.3 45 45 NW 25 41 29.78 1008 10 16 0.00 0.00
6:53 am 06:53 Clear 26 -3.3 6 -14.4 42 42 NW 31 50 29.83 1010 10 16 0.00 0.00
7:53 am 07:53 Sunny 25 -3.9 6 -14.4 44 44 NW 29 46 29.86 1011 10 16 0.00 0.00
8:53 am 08:53 Sunny 27 -2.8 5 -15 39 39 NW 25 41 29.88 1012 10 16 0.00 0.00
9:53 am 09:53 Sunny 31 -0.6 4 -15.6 31 31 NW 28 44 29.88 1012 10 16 0.00 0.00
10:53 am 10:53 Sunny 34 1.1 5 -15 29 29 NW 28 44 29.87 1011 10 16 0.00 0.00
11:53 am 11:53 Sunny 39 3.9 6 -14.4 25 25 NW 30 48 29.86 1011 10 16 0.00 0.00
12:53 pm 12:53 Sunny 42 5.6 6 -14.4 22 22 NW 24 39 29.86 1011 10 16 0.00 0.00
1:53 pm 13:53 Sunny 45 7.2 6 -14.4 20 20 WNW 23 37 29.85 1011 10 16 0.00 0.00
2:53 pm 14:53 Sunny 48 8.9 5 -15 17 17 WNW 20 31 29.85 1011 10 16 0.00 0.00
3:53 pm 15:53 Sunny 49 9.4 2 -16.7 14 14 WNW 20 31 29.85 1011 10 16 0.00 0.00
4:53 pm 16:53 Sunny 50 10 2 -16.7 14 14 NW 23 37 29.85 1011 10 16 0.00 0.00
5:53 pm 17:53 Sunny 49 9.4 2 -16.7 14 14 W 24 39 29.87 1012 10 16 0.00 0.00
6:53 pm 18:53 Sunny 48 8.9 2 -16.7 15 15 WNW 24 39 29.88 1012 10 16 0.00 0.00
7:53 pm 19:53 Sunny 44 6.7 3 -16.1 18 18 NW 14 22 29.89 1012 10 16 0.00 0.00
8:53 pm 20:53 Clear 36 2.2 2 -16.7 23 23 WNW 5 7 29.91 1013 10 16 0.00 0.00
9:53 pm 21:53 Clear 31 -0.6 3 -16.1 30 30 NW 7 11 29.96 1014 10 16 0.00 0.00
10:53 pm 22:53 Clear 29 -1.7 3 -16.1 33 33 WNW 9 15 29.98 1015 10 16 0.00 0.00
11:53 pm 23:53 Clear 30 -1.1 5 -15 34 34 WNW 9 15 29.98 1015 10 16 0.00 0.00

Powered by AerisWeather